This is the latest recevied weather packets stored in our database for station/object ALANSN-2. If no packets are shown the sender has not sent any weather packets the latest 10 day(s).
| Time | Temp. | Humidity | Pressure | Rain* | Wind** | Luminosity | Snow |
|---|---|---|---|---|---|---|---|
| 1787667419 | 16.67° C | 94% | 1031.5 hPa | 0 mm | - | 125 W/m² | - |
| 1787667120 | 16.67° C | 94% | 1031.2 hPa | 0 mm | - | 125 W/m² | - |
| 1787666820 | 16.11° C | 94% | 1031.4 hPa | 0 mm | - | 126 W/m² | - |
| 1787666520 | 16.11° C | 95% | 1031.3 hPa | 0 mm | - | 135 W/m² | - |
| 1787666220 | 15.56° C | 95% | 1031.4 hPa | 0 mm | - | 135 W/m² | - |
| 1787665920 | 15.56° C | 96% | 1031.6 hPa | 0 mm | - | 135 W/m² | - |
| 1787665620 | 15° C | 98% | 1031.5 hPa | 0 mm | - | 116 W/m² | - |
| 1787665320 | 15° C | 98% | 1031.6 hPa | 0 mm | - | 113 W/m² | - |
| 1787665020 | 15° C | 99% | 1031.6 hPa | 0 mm | - | 104 W/m² | - |
| 1787664719 | 14.44° C | 99% | 1031.3 hPa | 0 mm | - | 93 W/m² | - |
| 1787664420 | 14.44° C | 99% | 1031.3 hPa | 0 mm | - | 93 W/m² | - |
| 1787664120 | 14.44° C | 99% | 1031.5 hPa | 0 mm | - | 90 W/m² | - |
| 1787663820 | 13.33° C | 99% | 1031.7 hPa | 0 mm | - | 89 W/m² | - |
| 1787663519 | 13.33° C | 99% | 1031.7 hPa | 0 mm | - | 89 W/m² | - |
| 1787663220 | 13.89° C | 99% | 1031.5 hPa | 0 mm | - | 88 W/m² | - |
| 1787662919 | 13.33° C | 99% | 1031.4 hPa | 0 mm | - | 89 W/m² | - |
| 1787662620 | 13.33° C | 99% | 1031.4 hPa | 0 mm | - | 89 W/m² | - |
| 1787662320 | 13.33° C | 99% | 1031.3 hPa | 0 mm | - | 88 W/m² | - |
| 1787662020 | 13.33° C | 99% | 1031.4 hPa | 0 mm | - | 85 W/m² | - |
| 1787661719 | 13.33° C | 99% | 1031.4 hPa | 0 mm | - | 85 W/m² | - |
| 1787661420 | 13.33° C | 99% | 1031.4 hPa | 0 mm | - | 79 W/m² | - |
| 1787661120 | 12.22° C | 99% | 1031.3 hPa | 0 mm | - | 72 W/m² | - |
| 1787660820 | 12.22° C | 99% | 1031.3 hPa | 0 mm | - | 72 W/m² | - |
| 1787660520 | 12.22° C | 99% | 1031.1 hPa | 0 mm | - | 68 W/m² | - |
| 1787660220 | 11.67° C | 99% | 1031.3 hPa | 0 mm | - | 36 W/m² | - |
* Rain latest hour (hover to see other rain measurements)
** Current wind speed in m/s (hover to see current wind gust speed)